Epoch 2022 Jan. 21.0 TT = JDT 2459600.5 T 2021 Mar. 24.24188 TT Rudenko q 1.4126243 (2000.0) P Q n 0.18406224 Peri. 195.49937 +0.68073365 +0.70891821 a 3.0607387 Node 117.80961 -0.64796411 +0.70020985 e 0.5384695 Incl. 12.03920 -0.34167852 +0.08450524 P 5.35 From 4436 observations 1961 Mar. 19-2022 Feb. 6, mean residual 0".9. Nongravitational parameters A1 = +0.02, A2 = +0.0005.
H = 13.6 G = 0.15 [ ,-155] ( 〜2020年10月20日) m1 = 4.6 + 5 logΔ + 35 log r [-155, 0] (2020年10月20日〜2021年 3月24日) m1 = 7.2 + 5 logΔ + 18 log r [ 0, 405] (2021年 3月24日〜2022年 5月 3日) H = 13.6 G = 0.15 [ 405, ] (2022年 5月 3日〜 )